Weather History for Indianapolis, IN

Change the Weather History Date:

Tuesday, December 25, 2012

  Actual Average Record
Temperature  
Mean Temperature 32 °F 29 °F  
Max Temperature 33 °F 36 °F 64 °F (1893)
Min Temperature 30 °F 22 °F -15 °F (1983)
Degree Days  
Heating Degree Days 33 36  
Month to date heating degree days 595 817  
Since 1 July heating degree days 1758 1859  
Cooling Degree Days 0 0  
Month to date cooling degree days 0 0  
Year to date cooling degree days 1534 1066  
Moisture  
Dew Point 26 °F    
Average Humidity 81    
Maximum Humidity 92    
Minimum Humidity 69    
Precipitation  
Precipitation T in 0.11 in 1.36 in (2005)
Month to date precipitation 1.95 2.56  
Year to date precipitation 37.37 41.83  
Snow  
Snow T in 0.30 in 5.90 in (1909)
Month to date snowfall 2.0 5.2  
Since 1 July snowfall 2.2 6.3  
Snow Depth T in    
Sea Level Pressure  
Sea Level Pressure 30.14 in    
Wind  
Wind Speed 12 mph (NNE)    
Max Wind Speed 24 mph    
Max Gust Speed 30 mph    
Visibility 8 miles    
Events Snow    
T = Trace of Precipitation, MM = Missing Value Source: NWS Daily Summary

Daily Weather History Graph

Daily Weather History Graph

Search for Another Location

Airport:

Trip Planner

Search our weather history database for the weather conditions in past years. The results will help you decide how hot, cold, wet, or windy it might be!

Date:

Astronomy

Dec. 25, 2012 Rise Set
Actual Time 8:04 AM EST 5:26 PM EST
Civil Twilight 7:34 AM EST 5:57 PM EST
Nautical Twilight 7:00 AM EST 6:31 PM EST
Astronomical Twilight 6:27 AM EST 7:03 PM EST
Moon 3:34 PM EST (12/25) 5:36 AM EST (12/25)
Length of Visible Light 10h 22m
Length of Day
9h 22m
Waxing Gibbous, 93% of the Moon is Illuminated
Dec 25
Waxing Gibbous
Dec 28
Full
Jan 4
Last Quarter
Jan 11
New
Jan 18
First Quarter

Hourly Weather History & Observations

Time (EST) Temp. Windchill Dew Point Humidity Pressure Visibility Wind Dir Wind Speed Gust Speed Precip Events Conditions
12:54 AM 30.9 °F 25.2 °F 28.9 °F 92% 30.05 in 6.0 mi WNW 5.8 mph - N/A   Overcast
1:54 AM 32.0 °F 26.4 °F 28.9 °F 88% 30.06 in 6.0 mi WNW 5.8 mph - 0.00 in Snow Light Snow
2:54 AM 30.9 °F 24.3 °F 28.9 °F 92% 30.09 in 5.0 mi NW 6.9 mph - 0.00 in Snow Light Snow
3:50 AM 32.0 °F 24.8 °F 28.4 °F 87% 30.08 in 6.0 mi NNW 8.1 mph - 0.00 in   Overcast
3:54 AM 32.0 °F 24.2 °F 28.9 °F 88% 30.11 in 6.0 mi NNW 9.2 mph - 0.00 in   Overcast
4:54 AM 30.9 °F 22.2 °F 28.0 °F 89% 30.11 in 6.0 mi NNW 10.4 mph - N/A   Overcast
5:30 AM 30.2 °F 22.6 °F 28.4 °F 93% 30.10 in 7.0 mi North 8.1 mph - N/A   Overcast
5:54 AM 30.9 °F 24.3 °F 27.0 °F 85% 30.14 in 8.0 mi North 6.9 mph - N/A   Overcast
6:06 AM 30.2 °F 20.8 °F 26.6 °F 86% 30.12 in 9.0 mi North 11.5 mph - N/A   Overcast
6:54 AM 30.9 °F 22.2 °F 25.0 °F 79% 30.16 in 10.0 mi NNE 10.4 mph - N/A   Overcast
7:54 AM 30.0 °F 21.7 °F 25.0 °F 82% 30.18 in 9.0 mi North 9.2 mph - N/A   Overcast
8:54 AM 30.0 °F 21.1 °F 25.0 °F 82% 30.16 in 9.0 mi NNE 10.4 mph - N/A   Overcast
9:19 AM 30.2 °F 19.8 °F 24.8 °F 80% 30.14 in 9.0 mi NE 13.8 mph - N/A   Overcast
9:54 AM 30.0 °F 21.1 °F 25.0 °F 82% 30.20 in 8.0 mi NE 10.4 mph - N/A   Overcast
10:54 AM 30.9 °F 25.2 °F 26.1 °F 82% 30.24 in 8.0 mi NE 5.8 mph - N/A   Overcast
11:54 AM 32.0 °F 23.6 °F 26.1 °F 79% 30.22 in 8.0 mi NE 10.4 mph - N/A   Overcast
12:54 PM 32.0 °F 24.2 °F 27.0 °F 82% 30.20 in 8.0 mi NNE 9.2 mph - N/A   Overcast
1:54 PM 32.0 °F 23.0 °F 27.0 °F 82% 30.18 in 9.0 mi NE 11.5 mph - N/A   Overcast
2:54 PM 33.1 °F 24.9 °F 26.1 °F 75% 30.19 in 10.0 mi NE 10.4 mph - N/A   Overcast
3:54 PM 33.1 °F 23.4 °F 25.0 °F 72% 30.16 in 10.0 mi NE 13.8 mph - N/A   Overcast
4:54 PM 33.1 °F 22.6 °F 24.1 °F 70% 30.17 in 10.0 mi ENE 16.1 mph 20.7 mph N/A   Overcast
5:54 PM 32.0 °F 20.5 °F 25.0 °F 75% 30.17 in 10.0 mi NE 18.4 mph 24.2 mph N/A   Overcast
6:54 PM 32.0 °F 22.5 °F 24.1 °F 73% 30.17 in 10.0 mi ENE 12.7 mph 24.2 mph N/A   Overcast
7:27 PM 30.2 °F 19.3 °F 23.0 °F 75% 30.15 in 10.0 mi NE 15.0 mph 26.5 mph N/A   Mostly Cloudy
7:54 PM 30.9 °F 19.8 °F 24.1 °F 76% 30.17 in 10.0 mi NE 16.1 mph 24.2 mph N/A   Overcast
8:24 PM 32.0 °F 20.1 °F 24.8 °F 75% 30.14 in 10.0 mi ENE 19.6 mph 25.3 mph N/A   Overcast
8:54 PM 32.0 °F 20.5 °F 24.1 °F 73% 30.14 in 10.0 mi ENE 18.4 mph 25.3 mph N/A   Overcast
9:54 PM 32.0 °F 21.2 °F 25.0 °F 75% 30.11 in 10.0 mi ENE 16.1 mph 25.3 mph N/A   Overcast
10:54 PM 32.0 °F 20.8 °F 26.1 °F 79% 30.09 in 10.0 mi ENE 17.3 mph 26.5 mph N/A   Overcast
11:25 PM 32.0 °F 20.1 °F 26.6 °F 80% 30.05 in 10.0 mi ENE 19.6 mph 27.6 mph N/A   Overcast
11:54 PM 32.0 °F 20.5 °F 26.1 °F 79% 30.04 in 10.0 mi NE 18.4 mph 26.5 mph N/A   Overcast